Probability
0 0 0 0 0 0 0 0 0 0 0 0 1 2 2 2 1 0 0 0 1 2 2 2 2 1 0 0 0 0 0 0 0 0 0 0 0 0 0 0 0 0 0
0 0 0 0 0 0 0 0 0 0 0 0 0 1 1 1 0 0 0 0 0 1 1 1 1 0 0 0 0 0 0 0 0 0 0 0 0 0 0 0 0 0 0
0 0 0 0 0 0 0 0 0 0 0 0 0 0 0 0 0 0 0 0 0 0 0 0 0 0 0 0 0 0 0 0 0 0 0 0 0 0 0 0 0 0 0
0 0 0 0 0 0 0 0 0 0 0 0 0 0 0 0 0 0 0 0 0 0 0 0 0 0 0 0 0 0 0 0 0 0 0 0 0 0 0 0 0 0 0
0 0 0 0 0 0 0 0 0 0 0 0 0 0 0 0 0 0 0 0 0 0 0 0 0 0 0 0 0 0 0 0 0 0 0 0 0 0 0 0 0 0 0
0 0 0 0 0 0 0 0 0 0 0 0 0 0 0 0 0 0 0 0 0 0 0 0 0 0 0 0 0 0 0 0 0 0 0 0 0 0 0 0 0 0 0
0 0 0 0 0 0 0 0 0 0 0 0 0 0 0 0 0 0 0 0 0 0 0 0 0 0 0 0 0 0 0 0 0 0 0 0 0 0 0 0 0 0 0
0 0 0 0 0 0 0 0 0 0 0 0 0 0 0 0 0 0 0 0 0 0 0 0 0 0 0 0 0 0 0 0 0 0 0 0 0 0 0 0 0 0 0
0 0 0 0 0 0 0 0 0 0 0 0 0 0 0 0 0 0 0 0 0 0 0 0 0 0 0 0 0 0 0 0 0 0 0 0 0 0 0 0 0 0 0
0 0 0 0 0 0 0 0 0 0 0 0 0 0 0 0 0 0 0 0 0 0 0 0 0 0 0 0 0 0 0 0 0 0 0 0 0 0 0 0 0 0 0
0 0 0 0 0 0 0 0 0 0 0 0 0 0 0 0 0 0 0 0 0 0 0 0 0 0 0 0 0 0 0 0 0 0 0 0 0 0 0 0 0 0 0
0 0 0 0 0 0 0 0 0 0 0 0 0 0 0 0 0 0 0 0 0 0 0 0 0 0 0 0 0 0 0 0 0 0 0 0 0 0 0 0 0 0 0
0 0 0 0 0 0 0 0 0 0 0 0 0 0 0 0 0 0 0 0 0 0 0 0 0 0 0 0 0 0 0 0 0 0 0 0 0 0 0 0 0 0 0
0 0 0 0 0 0 0 0 0 0 0 0 0 0 0 0 0 0 0 0 0 0 0 0 0 0 0 0 0 0 0 0 0 0 0 0 0 0 0 0 0 0 0
0 0 0 0 0 0 0 0 0 0 0 0 0 0 0 0 0 0 0 0 0 0 0 0 0 0 0 0 0 0 0 0 0 0 0 0 0 0 0 0 0 0 0
0 0 0 0 0 0 0 0 0 0 0 0 0 0 0 0 0 0 0 0 0 0 0 0 0 0 0 0 0 0 0 0 0 0 0 0 0 0 0 0 0 0 0
0 0 0 0 0 0 0 0 0 0 0 0 0 0 0 0 0 0 0 0 0 0 0 0 0 0 0 0 0 0 0 0 0 0 0 0 0 0 0 0 0 0 0
0 0 0 0 0 0 0 0 0 0 0 0 0 0 0 0 0 0 0 0 0 0 0 0 0 0 0 0 0 0 0 0 0 0 0 0 0 0 0 0 0 0 0
0 0 0 0 0 0 0 0 0 0 0 0 0 0 0 0 0 0 0 0 0 0 0 0 0 0 0 0 0 0 0 0 0 0 0 0 0 0 0 0 0 0 0
0 0 0 0 0 0 0 0 0 0 0 0 0 0 0 0 0 0 0 0 0 0 0 0 0 0 0 0 0 0 0 0 0 0 0 0 0 0 0 0 0 0 0
0 0 0 0 0 0 0 0 0 0 0 0 0 0 0 0 0 0 0 0 0 0 0 0 0 0 0 0 0 0 0 0 0 0 0 0 0 0 0 0 0 0 0
0 0 0 0 0 0 0 0 0 0 0 0 0 0 0 0 0 0 0 0 0 0 0 0 0 0 0 0 0 0 0 0 0 0 0 0 0 0 0 0 0 0 0
0 0 0 0 0 0 0 0 0 0 0 0 0 0 0 0 0 0 0 0 0 0 0 0 0 0 0 0 0 0 0 0 0 0 0 0 0 0 0 0 0 0 0
0 0 0 0 0 0 0 0 0 0 0 0 0 0 0 0 0 0 0 0 0 0 0 0 0 0 0 0 0 0 0 0 0 0 0 0 0 0 0 0 0 0 0
0 0 0 0 0 0 0 0 0 0 0 0 0 0 0 0 0 0 0 0 0 0 0 0 0 0 0 0 0 0 0 0 0 0 0 0 0 0 0 0 0 0 0
0 0 0 0 0 0 0 0 0 0 0 0 0 0 0 0 0 0 0 0 0 0 0 0 0 0 0 0 0 0 0 0 0 0 0 0 0 0 0 0 0 0 0
Wind_Speed
3 3 3 2 2 3 2 3 3 4 4 4 5 5 5 5 5 4 4 4 4 4 4 4 4 4 3 3 3 3 3 4 5 4 3 4 5 5 5 6 6 6 5
4 3 3 2 2 2 2 2 3 3 3 4 4 4 4 5 5 5 4 4 4 4 4 4 4 4 4 4 3 3 3 4 4 6 4 4 5 6 6 7 6 5 6
4 4 3 3 3 2 2 2 2 2 2 3 3 3 4 4 4 5 4 4 4 4 5 5 5 5 5 4 4 4 3 4 4 5 5 4 4 4 6 6 6 6 6
4 4 4 4 3 3 2 2 1 1 2 2 2 3 3 3 4 4 4 4 4 4 4 5 5 5 5 5 4 5 4 4 4 4 4 4 4 5 5 6 6 6 6
5 5 5 4 3 3 2 1 1 1 1 1 2 2 3 3 3 4 3 3 4 4 4 4 5 6 7 6 4 5 5 4 4 4 4 4 4 5 5 5 7 7 7
6 6 5 4 4 3 3 2 1 1 0 1 1 2 2 2 5 5 4 3 3 3 4 4 4 5 6 6 6 6 7 5 5 5 4 5 6 6 6 6 7 7 6
7 6 5 5 5 4 3 3 2 2 1 1 1 1 2 3 5 5 4 3 3 3 4 4 4 4 6 5 4 5 5 6 6 6 6 6 7 7 8 8 7 8 8
6 6 6 6 5 5 4 4 3 2 2 2 1 1 2 2 4 4 3 2 2 3 4 4 5 5 5 6 5 5 5 5 6 5 5 6 7 8 8 8 9 9 9
7 7 7 7 6 6 6 5 4 3 3 2 2 1 2 2 3 4 4 2 2 3 3 4 5 5 6 7 5 5 5 5 5 6 7 8 9 10 9 6 6 6 7
7 7 6 6 7 7 6 5 4 4 3 2 2 2 2 2 2 4 4 2 3 3 3 3 5 7 8 8 6 5 6 6 6 6 6 7 6 7 8 6 5 6 6
5 5 6 6 7 6 5 5 5 4 3 3 3 2 2 2 2 3 4 2 3 3 3 3 3 7 9 9 7 5 6 8 6 6 6 6 5 5 5 5 5 5 6
5 6 6 6 6 5 6 5 5 5 4 4 3 3 2 2 2 2 3 3 4 3 3 3 4 8 9 8 6 6 8 7 4 5 5 5 6 6 6 6 7 7 7
5 6 6 6 6 6 6 6 5 5 4 3 3 3 2 2 2 3 3 4 4 3 3 5 6 7 7 5 5 7 6 4 4 4 5 5 6 7 7 7 7 7 8
6 6 5 6 6 6 5 5 5 5 5 4 4 3 2 2 2 2 2 3 3 3 3 4 5 5 4 4 4 4 3 4 4 5 5 6 6 6 6 6 7 7 7
6 6 6 6 6 6 5 5 5 5 5 4 4 3 3 3 3 3 3 2 2 3 4 3 3 3 3 3 3 3 3 4 4 4 5 6 6 6 6 6 6 7 7
6 6 5 5 5 5 5 4 5 5 6 8 6 4 4 4 4 5 5 5 5 4 4 3 3 3 3 3 4 4 4 4 4 5 5 6 6 7 7 7 7 7 7
7 6 5 5 5 5 5 5 4 5 7 8 8 7 6 5 5 5 5 5 5 4 3 3 3 3 3 3 4 4 4 5 5 5 6 6 6 7 7 7 7 7 8
6 6 6 5 5 5 5 5 4 4 4 4 6 8 7 6 5 5 4 4 3 3 3 3 3 3 3 4 4 4 5 5 5 5 6 6 6 7 7 7 7 8 9
6 5 5 5 5 5 5 5 4 5 4 3 3 4 6 6 6 5 5 4 3 3 3 3 3 3 4 4 4 5 5 5 6 6 6 7 6 7 7 7 8 11 10
5 7 6 5 5 5 5 5 5 5 4 4 4 4 4 4 4 4 4 4 4 4 3 4 4 4 4 4 4 5 5 6 6 6 6 6 6 7 8 9 8 9 8
5 6 8 5 5 5 5 5 5 5 5 5 4 4 6 4 4 4 4 4 4 4 4 4 4 4 4 4 4 5 6 6 6 6 6 6 7 7 7 8 9 9 9
5 5 5 5 5 5 5 5 5 5 5 5 4 4 8 5 4 4 4 4 4 4 4 4 4 4 4 4 5 5 6 7 6 6 7 7 7 8 8 8 8 9 9
5 6 5 5 5 6 6 5 5 5 5 5 4 4 5 5 4 4 4 4 3 3 3 4 4 4 4 4 5 5 6 7 7 7 7 8 8 8 8 9 10 10 10
6 6 6 5 5 5 5 5 5 5 5 5 5 5 4 4 4 4 4 3 3 3 4 4 4 6 7 6 5 5 6 7 7 7 10 9 9 8 8 8 9 11 10
6 6 6 6 6 5 5 5 5 5 5 5 5 4 4 4 4 4 4 3 4 4 4 4 4 5 6 8 8 7 10 13 11 8 8 8 9 9 9 10 9 10 10
6 6 6 5 5 5 5 5 5 5 5 5 5 4 4 4 4 4 4 4 3 4 4 4 5 6 7 7 8 10 12 13 13 13 9 7 8 8 8 8 10 10 10
Wind_Direction
253 258 263 277 286 288 293 304 309 312 317 322 328 333 339 342 342 340 339 336 336 338 335 333 332 326 320 323 323 320 312 296 279 289 302 315 316 317 318 313 306 303 301
239 247 254 263 270 273 283 298 302 308 319 325 327 335 343 345 345 345 345 345 343 342 341 340 335 333 335 331 327 322 313 309 295 292 300 308 311 320 316 312 313 311 305
227 233 240 244 249 260 272 281 295 305 317 326 331 338 344 349 349 350 347 349 352 350 349 349 346 343 348 345 337 326 320 317 308 294 295 305 305 320 316 312 314 313 310
221 227 233 237 239 245 257 266 278 295 309 328 338 343 345 349 351 353 350 353 358 3 3 359 357 355 352 344 339 334 327 319 311 299 297 305 308 317 313 313 314 315 309
217 223 229 230 229 230 231 232 242 271 305 327 336 344 350 352 357 351 347 352 0 3 4 3 7 4 358 352 346 338 333 324 319 309 305 308 311 320 319 319 309 312 304
217 221 220 219 216 217 221 220 214 223 281 317 335 349 0 8 5 2 351 352 358 357 355 352 352 352 356 358 4 360 350 335 323 313 309 310 316 319 318 313 311 309 305
216 217 212 212 213 210 209 214 218 219 223 239 287 330 350 9 1 7 8 345 351 350 343 339 339 344 340 339 346 348 353 353 339 315 310 311 312 315 312 307 305 301 294
215 215 210 209 211 206 205 211 218 219 224 235 260 300 317 353 357 359 349 334 348 351 347 342 337 339 348 337 329 332 336 341 338 328 317 314 314 313 307 299 297 296 290
217 216 210 207 207 204 204 206 206 210 217 223 238 264 284 315 350 347 332 328 334 344 346 346 340 339 347 338 331 326 324 327 335 331 323 318 317 318 315 305 303 300 296
221 216 208 205 206 207 205 201 198 205 214 214 225 245 267 294 340 337 324 315 321 330 336 340 353 350 346 343 337 331 328 331 330 326 323 322 321 326 325 312 303 298 298
218 208 204 203 206 206 200 197 194 197 201 208 220 230 248 279 308 327 325 313 316 318 322 328 343 346 343 344 340 337 334 327 324 323 321 323 326 329 331 325 314 297 290
206 205 205 204 199 196 196 193 194 195 201 207 216 227 231 248 279 299 310 312 312 303 308 318 329 335 337 340 342 344 337 330 324 322 323 326 328 328 324 318 310 301 287
204 207 205 200 197 194 196 194 192 196 206 210 215 224 228 237 249 272 286 298 304 298 302 314 319 327 329 334 349 342 335 331 328 323 323 322 320 316 313 309 308 301 293
208 207 201 197 196 195 197 198 199 200 205 210 215 222 226 234 246 254 262 272 279 284 292 300 306 314 316 320 326 332 334 334 326 318 316 315 314 314 314 316 313 311 303
208 204 199 198 196 194 198 202 207 210 212 212 215 218 223 234 243 264 274 273 279 288 296 291 294 303 309 316 319 323 325 322 322 320 316 316 316 316 315 317 311 307 301
204 203 199 194 193 193 191 195 211 220 219 225 229 229 234 245 258 256 262 270 277 281 281 281 287 294 300 308 312 316 318 319 319 316 312 312 312 313 312 313 310 305 302
208 202 196 194 192 192 193 196 197 203 217 224 225 227 232 238 247 252 257 263 264 263 263 274 281 288 294 299 302 304 305 308 308 304 303 305 306 306 307 308 309 309 305
209 202 197 196 192 192 194 198 201 198 198 206 215 224 229 235 239 242 249 252 246 244 260 270 276 282 286 289 293 296 298 300 299 299 300 300 301 302 302 303 305 306 305
203 199 195 193 190 189 189 194 198 203 209 208 205 212 221 228 229 231 234 238 248 254 260 267 272 277 280 283 287 290 292 292 294 296 295 296 297 298 298 299 300 302 303
202 195 190 189 186 186 189 194 197 200 205 210 214 213 204 211 219 221 224 234 245 254 259 264 268 271 276 279 283 285 287 288 291 290 293 295 295 294 294 296 298 300 301
194 190 188 190 191 191 194 199 200 202 207 212 216 211 208 218 225 227 229 234 242 250 257 262 266 269 270 274 278 280 284 286 288 290 291 292 294 293 293 293 295 296 298
190 188 190 195 193 194 197 198 201 206 210 214 215 212 217 224 226 228 230 235 242 248 253 259 264 266 266 269 274 278 280 282 285 287 289 290 290 290 292 293 295 298 300
190 188 189 193 193 197 199 199 200 205 209 212 211 209 213 220 222 226 233 238 242 248 252 254 260 264 267 268 269 269 273 277 282 286 287 287 288 290 292 294 297 300 303
192 192 192 191 192 196 199 201 202 206 208 210 211 213 216 220 224 227 233 238 242 247 249 252 257 265 272 276 273 271 271 278 282 278 276 278 284 287 290 293 297 300 302
192 194 194 194 194 196 198 201 202 204 206 208 211 213 216 220 225 228 231 236 242 248 254 259 258 264 270 276 279 281 284 288 287 285 280 278 282 287 293 296 298 301 303
194 195 195 195 196 197 198 200 203 204 206 206 208 211 214 218 223 227 229 233 240 247 253 257 261 270 277 278 281 286 292 295 297 296 292 286 289 291 297 296 301 302 304